Location: Unspecified
(0.0000°N, 0.0000°E)
Time: 03:20:22
(UTC+00:00)

Vanguard 1 Rocket - All Passes

Search period start: 18 December 2017 00:00
Search period end: 28 December 2017 00:00
Orbit: 656 x 4222 km, 34.3° (Epoch: 17 December)

Date Brightness Start Highest point End Pass type
(mag) Time Alt. Az. Time Alt. Az. Time Alt. Az.
18 Dec - 01:32:45 10° WNW 01:57:53 53° SW 02:16:16 10° SE visible
18 Dec - 04:18:40 10° WSW 04:30:45 18° SSW 04:39:38 10° S visible
18 Dec - 11:56:34 10° SW 12:01:02 88° SE 12:06:00 10° NE daylight
18 Dec - 14:25:10 10° NW 14:27:19 12° NNW 14:29:48 10° N daylight
18 Dec - 19:22:24 10° NNW 19:33:56 21° NNE 19:49:36 10° ENE visible
18 Dec - 21:47:30 10° NW 22:08:34 55° NE 22:33:21 10° ESE visible
19 Dec - 00:16:57 10° WNW 00:42:39 73° SW 01:04:26 10° SE visible
19 Dec - 02:56:05 10° W 03:15:57 29° SW 03:29:54 10° SSE visible
19 Dec - 10:45:58 10° SSW 10:50:23 32° SSE 10:54:22 10° E daylight
19 Dec - 13:12:00 10° WNW 13:15:28 21° NNW 13:19:42 10° NNE daylight
19 Dec - 18:13:19 10° N 18:18:29 12° NNE 18:24:41 10° NE visible
19 Dec - 20:35:56 10° NNW 20:53:06 38° NE 21:16:05 10° E visible
19 Dec - 23:02:56 10° NW 23:27:02 86° NE 23:51:29 10° SE visible
20 Dec - 01:36:49 10° WNW 02:00:53 44° SW 02:19:03 10° SSE visible
20 Dec - 04:25:36 10° SW 04:35:02 15° SSW 04:42:23 10° S visible
20 Dec - 09:35:50 10° S 09:39:06 15° SSE 09:41:52 10° ESE daylight
20 Dec - 12:00:07 10° WSW 12:04:28 48° NW 12:09:09 10° NE daylight
20 Dec - 19:25:16 10° NNW 19:37:56 25° NNE 19:55:45 10° E visible
20 Dec - 21:50:18 10° NW 22:11:26 65° NE 22:37:01 10° ESE visible
21 Dec - 00:20:22 10° WNW 00:45:26 62° SW 01:07:17 10° SE visible
21 Dec - 03:01:46 10° WSW 03:19:41 24° SSW 03:32:43 10° SSE visible
21 Dec - 10:48:50 10° SW 10:53:52 59° SE 10:58:13 10° ENE daylight
21 Dec - 13:17:27 10° NW 13:19:13 12° NNW 13:21:10 10° N daylight
21 Dec - 18:16:00 10° N 18:22:59 14° NNE 18:31:57 10° NE visible
21 Dec - 20:38:42 10° NNW 20:56:14 46° NE 21:20:31 10° ESE visible
21 Dec - 23:06:01 10° NW 23:29:44 82° SW 23:54:29 10° SE visible
22 Dec - 01:41:22 10° W 02:04:08 37° SW 02:21:50 10° SSE visible
22 Dec - 04:32:34 10° SW 04:39:39 13° SSW 04:45:27 10° S visible
22 Dec - 09:37:49 10° SSW 09:42:52 25° SSE 09:46:44 10° E daylight
22 Dec - 12:04:08 10° W 12:07:55 26° NW 12:11:53 10° NNE daylight
22 Dec - 19:28:02 10° NNW 19:41:31 30° NE 20:01:18 10° E visible
22 Dec - 21:53:11 10° NW 22:14:10 76° NE 22:40:21 10° ESE visible
23 Dec - 00:24:08 10° WNW 00:48:22 52° SW 01:10:04 10° SE visible
23 Dec - 03:07:59 10° WSW 03:23:50 21° SSW 03:35:42 10° SSE visible
23 Dec - 08:26:51 10° SSW 08:31:04 15° SSE 08:34:20 10° SE daylight
23 Dec - 10:52:05 10° WSW 10:57:17 73° NW 11:01:39 10° NE daylight
23 Dec - 18:18:32 10° N 18:27:06 18° NNE 18:38:53 10° ENE visible
23 Dec - 20:41:30 10° NW 20:59:09 55° NE 21:24:27 10° ESE visible
23 Dec - 23:09:19 10° WNW 23:32:31 71° SW 23:57:20 10° SE visible
24 Dec - 01:46:26 10° W 02:07:45 31° SSW 02:24:40 10° SSE visible
24 Dec - 04:38:46 10° SSW 04:44:31 12° SSW 04:49:22 10° S visible
24 Dec - 07:15:40 10° S 07:18:20 11° S 07:20:39 10° SSE daylight
24 Dec - 09:40:24 10° SW 09:46:31 44° SSE 09:50:51 10° ENE daylight
24 Dec - 12:08:55 10° WNW 12:11:25 15° NNW 12:14:00 10° N daylight
24 Dec - 19:30:46 10° NNW 19:44:46 37° NE 20:06:15 10° E visible
24 Dec - 21:56:13 10° NW 22:16:54 88° NE 22:43:25 10° SE visible
25 Dec - 00:28:18 10° W 00:51:34 44° SW 01:12:48 10° SSE visible
25 Dec - 03:14:30 10° WSW 03:28:23 18° SSW 03:39:01 10° SSE visible
25 Dec - 06:02:21 10° S 06:04:33 11° S 06:06:33 10° SSE daylight
25 Dec - 08:28:40 10° SSW 08:35:02 24° SSE 08:39:23 10° ESE daylight
25 Dec - 10:55:44 10° WSW 11:00:37 39° NW 11:04:44 10° NNE daylight
25 Dec - 18:21:04 10° N 18:30:52 22° NE 18:45:14 10° E visible
25 Dec - 20:44:23 10° NW 21:01:55 66° NE 21:28:00 10° ESE visible
25 Dec - 23:12:53 10° WNW 23:35:27 60° SW 00:00:04 10° SE visible
26 Dec - 01:52:02 10° WSW 02:11:45 26° SSW 02:27:39 10° SSE visible
26 Dec - 04:43:24 10° SSW 04:49:31 12° S 04:54:33 10° SSE visible
26 Dec - 07:16:29 10° SSW 07:22:37 17° SSE 07:27:04 10° SE daylight
26 Dec - 09:43:20 10° SW 09:50:01 78° SE 09:54:32 10° ENE daylight
26 Dec - 17:14:52 10° NNE 17:17:05 10° NNE 17:19:32 10° NE daylight
26 Dec - 19:33:32 10° NNW 19:47:46 45° NE 20:10:37 10° ESE visible
26 Dec - 21:59:27 10° WNW 22:19:41 80° SW 22:46:17 10° SE visible
27 Dec - 00:32:53 10° W 00:55:05 37° SSW 01:15:34 10° SSE visible
27 Dec - 03:20:51 10° SW 03:33:15 16° SSW 03:42:52 10° SSE visible
27 Dec - 06:03:02 10° SSW 06:09:11 14° S 06:13:54 10° SE daylight
27 Dec - 08:31:00 10° SW 08:38:51 38° SSE 08:43:43 10° E daylight
27 Dec - 10:59:53 10° W 11:03:55 22° NW 11:07:24 10° NNE daylight
27 Dec - 18:23:39 10° NNW 18:34:15 27° NE 18:50:51 10° E visible
27 Dec - 20:47:24 10° NW 21:04:39 78° NE 21:31:12 10° ESE visible
